Weather History for KPEX - November, 2012

Change the Weather History Date:

Tuesday, November 20, 2012

  Actual Average (KLJF) Record (KLJF)
Temperature  
Mean Temperature 34 °F -  
Max Temperature 48 °F 35 °F 64 °F (1962)
Min Temperature 20 °F 21 °F 1 °F (1969)
Degree Days  
Heating Degree Days 31    
Moisture  
Dew Point 30 °F    
Average Humidity 79    
Maximum Humidity 99    
Minimum Humidity 54    
Precipitation  
Precipitation 0.00 in - - ()
Sea Level Pressure  
Sea Level Pressure 30.10 in    
Wind  
Wind Speed 3 mph (South)    
Max Wind Speed 13 mph    
Max Gust Speed -    
Visibility 6 miles    
Events Fog    
Averages and records for this station are not official NWS values.
T = Trace of Precipitation, MM = Missing Value Source: NWS Daily Summary

Daily Weather History Graph

Daily Weather History Graph

Search for Another Location

Airport or City:

Trip Planner

Search our weather history database for the weather conditions in past years. The results will help you decide how hot, cold, wet, or windy it might be!

Date:

Astronomy

Nov. 20, 2012 Rise Set
Actual Time 7:25 AM CST 4:43 PM CST
Civil Twilight 6:52 AM CST 5:16 PM CST
Nautical Twilight 6:16 AM CST 5:52 PM CST
Astronomical Twilight 5:41 AM CST 6:27 PM CST
Moon 12:49 PM CST (11/20) No Moon Set
Length of Visible Light 10h 23m
Length of Day
9h 18m
First Quarter, 51% of the Moon is Illuminated
Nov 20
First Quarter
Nov 28
Full
Dec 6
Last Quarter
Dec 13
New
Dec 19
First Quarter

Hourly Weather History & Observations

Time (CST) Temp. Windchill Dew Point Humidity Pressure Visibility Wind Dir Wind Speed Gust Speed Precip Events Conditions
12:13 AM 34.7 °F - 32.2 °F 91% 30.10 in 7.0 mi Calm Calm - N/A   Clear
12:34 AM 32.5 °F - 30.7 °F 93% 30.11 in 5.0 mi Calm Calm - N/A   Clear
12:53 AM 32.9 °F 29.8 °F 31.6 °F 95% 30.13 in 5.0 mi WNW 3.5 mph - N/A   Clear
1:13 AM 32.9 °F 27.5 °F 31.8 °F 96% 30.13 in 5.0 mi NNW 5.8 mph - N/A   Clear
1:33 AM 33.1 °F 28.7 °F 31.8 °F 95% 30.13 in 5.0 mi NNW 4.6 mph - N/A   Clear
1:54 AM 32.5 °F 28.1 °F 31.3 °F 95% 30.12 in 5.0 mi NNW 4.6 mph - N/A   Clear
2:13 AM 32.2 °F - 31.1 °F 96% 30.13 in 5.0 mi Calm Calm - N/A   Clear
2:33 AM 31.1 °F 27.7 °F 29.8 °F 95% 30.15 in 4.0 mi NW 3.5 mph - N/A   Clear
2:53 AM 27.3 °F 20.9 °F 26.2 °F 96% 30.17 in 3.0 mi WNW 5.8 mph - N/A   Clear
3:13 AM 27.5 °F - 26.6 °F 96% 30.15 in 3.0 mi Calm Calm - N/A   Clear
3:34 AM 25.7 °F - 24.6 °F 96% 30.16 in 2.0 mi Calm Calm - N/A   Clear
3:54 AM 23.7 °F 19.3 °F 23.0 °F 97% 30.15 in 2.0 mi WSW 3.5 mph - N/A   Clear
4:13 AM 25.5 °F 21.3 °F 24.8 °F 97% 30.15 in 2.0 mi WSW 3.5 mph - N/A   Clear
4:33 AM 24.3 °F 18.4 °F 23.5 °F 97% 30.15 in 2.5 mi WSW 4.6 mph - N/A   Scattered Clouds
4:54 AM 23.7 °F 19.3 °F 23.0 °F 97% 30.16 in 0.2 mi West 3.5 mph - N/A Fog Light Freezing Fog
5:14 AM 23.4 °F 18.9 °F 22.5 °F 96% 30.17 in 0.2 mi WSW 3.5 mph - N/A Fog Light Freezing Fog
5:33 AM 23.2 °F - 22.3 °F 96% 30.16 in 0.2 mi Calm Calm - N/A Fog Light Freezing Fog
5:53 AM 22.1 °F - 21.2 °F 96% 30.15 in 0.2 mi Calm Calm - N/A Fog Light Freezing Fog
6:14 AM 21.2 °F - 20.1 °F 96% 30.15 in 0.2 mi Calm Calm - N/A Fog Light Freezing Fog
6:33 AM 21.2 °F - 20.3 °F 96% 30.15 in 0.8 mi Calm Calm - N/A   Overcast
6:53 AM 21.2 °F - 20.3 °F 96% 30.15 in 0.2 mi Calm Calm - N/A Fog Light Freezing Fog
7:13 AM 20.8 °F - 19.8 °F 96% 30.16 in 0.2 mi Calm Calm - N/A Fog Light Freezing Fog
7:33 AM 20.3 °F - 19.2 °F 96% 30.16 in 0.2 mi Calm Calm - N/A Fog Light Freezing Fog
7:53 AM 20.3 °F 15.4 °F 19.4 °F 96% 30.17 in 0.2 mi West 3.5 mph - N/A Fog Light Freezing Fog
8:13 AM 21.4 °F 15.1 °F 20.5 °F 96% 30.18 in 0.2 mi West 4.6 mph - N/A Fog Light Freezing Fog
8:33 AM 21.9 °F 15.7 °F 21.0 °F 96% 30.19 in 0.2 mi WSW 4.6 mph - N/A Fog Light Freezing Fog
8:53 AM 23.0 °F 18.4 °F 22.1 °F 96% 30.19 in 0.2 mi West 3.5 mph - N/A Fog Light Freezing Fog
9:13 AM 24.8 °F - 23.9 °F 96% 30.19 in 0.2 mi Calm Calm - N/A Fog Light Freezing Fog
9:34 AM 25.7 °F - 24.8 °F 96% 30.17 in 0.2 mi Calm Calm - N/A Fog Light Freezing Fog
9:53 AM 27.5 °F - 27.0 °F 98% 30.17 in 0.2 mi Calm Calm - N/A Fog Light Freezing Fog
10:13 AM 30.6 °F - 30.0 °F 98% 30.16 in 0.8 mi Calm Calm - N/A   Overcast
10:33 AM 33.8 °F - 33.3 °F 98% 30.16 in 5.0 mi Calm Calm - N/A   Clear
10:53 AM 36.5 °F - 36.1 °F 99% 30.16 in 7.0 mi Calm Calm - N/A   Clear
11:13 AM 39.0 °F - 38.5 °F 98% 30.16 in 10.0 mi Calm Calm - N/A   Clear
11:33 AM 41.9 °F - 36.0 °F 79% 30.16 in 10.0 mi Calm Calm - N/A   Clear
11:53 AM 43.5 °F - 36.5 °F 76% 30.15 in 10.0 mi Calm Calm - N/A   Clear
12:13 PM 45.1 °F 43.7 °F 36.0 °F 70% 30.14 in 10.0 mi South 3.5 mph - N/A   Clear
12:33 PM 46.8 °F - 36.1 °F 67% 30.13 in 10.0 mi SW 4.6 mph - N/A   Clear
12:54 PM 46.9 °F - 35.4 °F 64% 30.13 in 10.0 mi SSW 3.5 mph - N/A   Clear
1:13 PM 47.8 °F - 34.2 °F 59% 30.12 in 10.0 mi SSW 4.6 mph - N/A   Clear
1:33 PM 48.2 °F - 34.7 °F 60% 30.12 in 10.0 mi Calm Calm - N/A   Clear
1:53 PM 48.0 °F - 33.3 °F 57% 30.11 in 10.0 mi SE 8.1 mph - N/A   Clear
2:12 PM 48.4 °F - 32.2 °F 54% 30.10 in 10.0 mi SSE 6.9 mph - N/A   Clear
2:33 PM 47.5 °F - 32.9 °F 57% 30.10 in 10.0 mi South 6.9 mph - N/A   Clear
2:53 PM 47.5 °F - 32.9 °F 57% 30.09 in 10.0 mi SSE 6.9 mph - N/A   Clear
3:14 PM 47.5 °F - 32.7 °F 57% 30.08 in 10.0 mi SSE 6.9 mph - N/A   Clear
3:33 PM 46.9 °F - 33.4 °F 59% 30.07 in 10.0 mi SSE 5.8 mph - N/A   Clear
3:53 PM 47.3 °F - 33.8 °F 59% 30.06 in 10.0 mi SE 6.9 mph - N/A   Clear
4:14 PM 46.4 °F 42.9 °F 34.2 °F 62% 30.06 in 10.0 mi SE 6.9 mph - N/A   Clear
4:33 PM 45.9 °F 41.7 °F 34.0 °F 63% 30.07 in 10.0 mi SE 8.1 mph - N/A   Clear
4:53 PM 45.3 °F 41.1 °F 33.8 °F 64% 30.07 in 10.0 mi SE 8.1 mph - N/A   Clear
5:14 PM 44.6 °F 40.7 °F 33.4 °F 65% 30.06 in 10.0 mi SE 6.9 mph - N/A   Clear
5:33 PM 43.7 °F 39.1 °F 33.8 °F 68% 30.06 in 10.0 mi SE 8.1 mph - N/A   Clear
5:53 PM 43.2 °F 38.4 °F 33.8 °F 70% 30.06 in 10.0 mi SE 8.1 mph - N/A   Clear
6:14 PM 42.8 °F 38.0 °F 33.8 °F 70% 30.05 in 10.0 mi SE 8.1 mph - N/A   Clear
6:33 PM 42.8 °F 38.0 °F 33.6 °F 70% 30.05 in 10.0 mi SE 8.1 mph - N/A   Clear
6:53 PM 42.8 °F 36.2 °F 33.3 °F 69% 30.04 in 10.0 mi SE 12.7 mph - N/A   Clear
7:13 PM 42.3 °F 35.5 °F 32.9 °F 69% 30.04 in 10.0 mi SE 12.7 mph - N/A   Clear
7:34 PM 42.4 °F 37.0 °F 32.7 °F 68% 30.03 in 10.0 mi SSE 9.2 mph - N/A   Clear
7:53 PM 42.3 °F 37.3 °F 32.4 °F 68% 30.03 in 10.0 mi SSE 8.1 mph - N/A   Clear
8:13 PM 41.9 °F 36.9 °F 32.0 °F 68% 30.03 in 10.0 mi SSE 8.1 mph - N/A   Clear
8:33 PM 41.9 °F 36.3 °F 32.0 °F 68% 30.02 in 10.0 mi SSE 9.2 mph - N/A   Clear
8:53 PM 41.9 °F 37.5 °F 32.0 °F 68% 30.02 in 10.0 mi SSE 6.9 mph - N/A   Clear
9:13 PM 42.1 °F 37.1 °F 31.3 °F 66% 30.02 in 10.0 mi SSE 8.1 mph - N/A   Clear
9:33 PM 42.8 °F 37.5 °F 30.9 °F 63% 30.01 in 10.0 mi SSE 9.2 mph - N/A   Clear
9:53 PM 42.8 °F 38.0 °F 30.7 °F 62% 30.01 in 10.0 mi SSE 8.1 mph - N/A   Clear
10:13 PM 42.8 °F 37.5 °F 30.2 °F 61% 30.00 in 10.0 mi SSE 9.2 mph - N/A   Clear
10:34 PM 42.8 °F 39.3 °F 30.2 °F 61% 29.99 in 10.0 mi SSE 5.8 mph - N/A   Clear
10:53 PM 43.2 °F 37.9 °F 30.0 °F 60% 29.97 in 10.0 mi SSE 9.2 mph - N/A   Clear
11:13 PM 43.7 °F 38.1 °F 29.8 °F 58% 29.97 in 10.0 mi SSE 10.4 mph - N/A   Clear
11:34 PM 43.9 °F 38.8 °F 29.7 °F 57% 29.97 in 10.0 mi SSE 9.2 mph - N/A   Clear
11:53 PM 44.1 °F 38.6 °F 29.5 °F 57% 29.96 in 10.0 mi SSE 10.4 mph - N/A   Clear